This is the latest recevied weather packets stored in our database for station/object JF2ZGN-13. If no packets are shown the sender has not sent any weather packets the latest 10 day(s).
| Time | Temp. | Humidity | Pressure | Rain* | Wind** | Luminosity | Snow |
|---|---|---|---|---|---|---|---|
| 1777699397 | 19.44° C | 35% | 902.7 hPa | 0 mm | - | - | - |
| 1777698197 | 20° C | 43% | 902.5 hPa | 0 mm | - | - | - |
| 1777697596 | 20.56° C | 44% | 902.4 hPa | 0 mm | - | - | - |
| 1777696996 | 20° C | 43% | 902.3 hPa | 0 mm | - | - | - |
| 1777696395 | 19.44° C | 41% | 902.3 hPa | 0 mm | - | - | - |
| 1777695794 | 18.89° C | 44% | 902.1 hPa | 0 mm | - | - | - |
| 1777695194 | 18.89° C | 42% | 902 hPa | 0 mm | - | - | - |
| 1777694594 | 19.44° C | 41% | 902 hPa | 0 mm | - | - | - |
| 1777693994 | 20° C | 37% | 901.9 hPa | 0 mm | - | - | - |
| 1777693393 | 20° C | 37% | 901.9 hPa | 0 mm | - | - | - |
| 1777692792 | 19.44° C | 39% | 901.6 hPa | 0 mm | - | - | - |
| 1777692192 | 19.44° C | 38% | 901.5 hPa | 0 mm | - | - | - |
| 1777691591 | 19.44° C | 36% | 901.5 hPa | 0 mm | - | - | - |
| 1777690992 | 18.89° C | 25% | 901.4 hPa | 0 mm | - | - | - |
| 1777690390 | 18.89° C | 32% | 901.4 hPa | 0 mm | - | - | - |
| 1777689790 | 18.33° C | 36% | 901.4 hPa | 0 mm | - | - | - |
| 1777689189 | 18.33° C | 35% | 901.3 hPa | 0 mm | - | - | - |
| 1777687989 | 18.33° C | 30% | 901 hPa | 0 mm | - | - | - |
| 1777687388 | 17.78° C | 33% | 900.9 hPa | 0 mm | - | - | - |
| 1777686788 | 17.78° C | 33% | 900.9 hPa | 0 mm | - | - | - |
| 1777686187 | 17.78° C | 35% | 900.7 hPa | 0 mm | - | - | - |
| 1777685587 | 18.33° C | 39% | 900.4 hPa | 0 mm | - | - | - |
| 1777684987 | 18.33° C | 44% | 900.3 hPa | 0 mm | - | - | - |
| 1777684387 | 17.78° C | 38% | 900.3 hPa | 0 mm | - | - | - |
| 1777683785 | 18.33° C | 34% | 900.1 hPa | 0 mm | - | - | - |
* Rain since midnight (hover to see other rain measurements)
** Current wind speed in m/s (hover to see current wind gust speed)